• In Latvia
  • List of Countries
  • For 7 days
  • Water Temperature
  • Satellite Maps
  • Weather Map
  • Weather Widgets
  • user-avatar
    Login

    Hourly Weather São Paulo

    Today, 24 October, Tuesday

    Time Temperature Precipitation Wind Pressure Humidity
    00:00 +16°C° 0 mm 3 mps 701 mmHg 86%
    01:00 +16°C° 0 mm 3 mps 701 mmHg 87%
    02:00 +16°C° 0 mm 3 mps 700 mmHg 87%
    03:00 +16°C° 0 mm 2 mps 700 mmHg 88%
    04:00 +16°C° 0 mm 2 mps 700 mmHg 88%
    05:00 +16°C° 0 mm 2 mps 700 mmHg 88%
    06:00 +16°C° 0 mm 2 mps 700 mmHg 88%
    07:00 +17°C° 0 mm 2 mps 701 mmHg 84%
    08:00 +18°C° 0 mm 3 mps 701 mmHg 81%
    09:00 +20°C° 0 mm 3 mps 702 mmHg 78%
    10:00 +20°C° 0 mm 3 mps 702 mmHg 75%
    11:00 +21°C° 0 mm 3 mps 702 mmHg 73%
    12:00 +22°C° 0 mm 3 mps 702 mmHg 71%
    13:00 +22°C° 0 mm 3 mps 701 mmHg 71%
    14:00 +22°C° 0 mm 3 mps 701 mmHg 72%
    15:00 +22°C° 0 mm 3 mps 701 mmHg 73%
    16:00 +21°C° 0 mm 3 mps 700 mmHg 76%
    17:00 +20°C° 0 mm 3 mps 700 mmHg 80%
    18:00 +19°C° 0 mm 3 mps 700 mmHg 84%
    19:00 +19°C° 0 mm 3 mps 700 mmHg 85%
    20:00 +18°C° 0 mm 3 mps 701 mmHg 87%
    21:00 +18°C° 0 mm 3 mps 701 mmHg 88%
    22:00 +18°C° 0 mm 3 mps 701 mmHg 89%
    23:00 +18°C° 0 mm 2 mps 701 mmHg 89%

    Tomorrow, 25 October, Wednesday

    Time Temperature Precipitation Wind Pressure Humidity
    00:00 +18°C° 0 mm 2 mps 701 mmHg 90%
    01:00 +18°C° 0 mm 2 mps 700 mmHg 90%
    02:00 +17°C° 0 mm 2 mps 700 mmHg 90%
    03:00 +17°C° 0 mm 2 mps 700 mmHg 90%
    04:00 +17°C° 0 mm 2 mps 700 mmHg 90%
    05:00 +17°C° 0 mm 2 mps 700 mmHg 90%
    06:00 +17°C° 0 mm 2 mps 700 mmHg 91%
    07:00 +19°C° 0 mm 2 mps 701 mmHg 82%
    08:00 +21°C° 0 mm 2 mps 701 mmHg 74%
    09:00 +25°C° 0 mm 2 mps 702 mmHg 66%
    10:00 +26°C° 0 mm 2 mps 702 mmHg 61%
    11:00 +28°C° 0 mm 2 mps 702 mmHg 55%
    12:00 +30°C° 0 mm 2 mps 702 mmHg 50%
    13:00 +29°C° 0.7 mm 2 mps 701 mmHg 54%
    14:00 +28°C° 0.7 mm 2 mps 700 mmHg 58%
    15:00 +27°C° 0.7 mm 2 mps 699 mmHg 62%
    16:00 +26°C° 0.4 mm 2 mps 699 mmHg 68%
    17:00 +25°C° 0.4 mm 3 mps 699 mmHg 75%
    18:00 +22°C° 0.4 mm 3 mps 699 mmHg 81%
    19:00 +22°C° 0.3 mm 3 mps 699 mmHg 83%
    20:00 +21°C° 0.3 mm 3 mps 699 mmHg 86%
    21:00 +21°C° 0.3 mm 2 mps 700 mmHg 89%
    22:00 +21°C° 0.3 mm 2 mps 699 mmHg 89%
    23:00 +21°C° 0.3 mm 2 mps 699 mmHg 89%

    Day after tomorrow, 26 October, Thursday

    Time Temperature Precipitation Wind Pressure Humidity
    00:00 +21°C° 0.3 mm 1 mps 699 mmHg 89%
    01:00 +21°C° 0 mm 1 mps 698 mmHg 88%
    02:00 +21°C° 0 mm 1 mps 698 mmHg 87%
    03:00 +21°C° 0 mm 1 mps 697 mmHg 87%
    04:00 +21°C° 0.1 mm 1 mps 698 mmHg 86%
    05:00 +21°C° 0.1 mm 1 mps 698 mmHg 86%
    06:00 +19°C° 0.1 mm 0 mps 698 mmHg 85%
    07:00 +22°C° 0 mm 1 mps 698 mmHg 80%
    08:00 +23°C° 0 mm 2 mps 699 mmHg 75%
    09:00 +24°C° 0 mm 2 mps 699 mmHg 70%
    10:00 +26°C° 0 mm 3 mps 699 mmHg 65%
    11:00 +27°C° 0 mm 3 mps 699 mmHg 60%
    12:00 +28°C° 0 mm 3 mps 698 mmHg 54%
    13:00 +29°C° 0.2 mm 3 mps 698 mmHg 53%
    14:00 +30°C° 0.2 mm 3 mps 697 mmHg 51%
    15:00 +30°C° 0.2 mm 3 mps 697 mmHg 49%
    16:00 +29°C° 0.1 mm 3 mps 696 mmHg 53%
    17:00 +28°C° 0.1 mm 2 mps 696 mmHg 56%
    18:00 +27°C° 0.1 mm 1 mps 696 mmHg 60%
    19:00 +26°C° 1.1 mm 1 mps 696 mmHg 65%
    20:00 +25°C° 1.1 mm 1 mps 696 mmHg 70%
    21:00 +24°C° 1.1 mm 1 mps 697 mmHg 75%
    22:00 +23°C° 1.1 mm 1 mps 696 mmHg 77%
    23:00 +23°C° 1.1 mm 1 mps 696 mmHg 79%

    27 October, Friday

    Time Temperature Precipitation Wind Pressure Humidity
    00:00 +23°C° 1.1 mm 1 mps 695 mmHg 80%
    01:00 +23°C° 0.3 mm 1 mps 695 mmHg 80%
    02:00 +23°C° 0.3 mm 1 mps 695 mmHg 79%
    03:00 +23°C° 0.3 mm 1 mps 695 mmHg 79%
    04:00 +21°C° 0.3 mm 2 mps 695 mmHg 79%
    05:00 +21°C° 0.3 mm 2 mps 695 mmHg 79%
    06:00 +21°C° 0.3 mm 3 mps 695 mmHg 80%
    07:00 +23°C° 0 mm 4 mps 696 mmHg 72%
    08:00 +25°C° 0 mm 5 mps 696 mmHg 65%
    09:00 +27°C° 0 mm 6 mps 696 mmHg 57%
    10:00 +28°C° 0 mm 6 mps 696 mmHg 53%
    11:00 +30°C° 0 mm 6 mps 696 mmHg 48%
    12:00 +32°C° 0 mm 6 mps 695 mmHg 43%
    13:00 +30°C° 0.3 mm 6 mps 695 mmHg 50%
    14:00 +28°C° 0.3 mm 6 mps 694 mmHg 57%
    15:00 +26°C° 0.3 mm 6 mps 694 mmHg 64%
    16:00 +26°C° 0 mm 5 mps 694 mmHg 66%
    17:00 +26°C° 0 mm 4 mps 693 mmHg 67%
    18:00 +25°C° 0 mm 4 mps 693 mmHg 69%
    19:00 +25°C° 0 mm 3 mps 694 mmHg 70%
    20:00 +24°C° 0 mm 3 mps 694 mmHg 72%
    21:00 +24°C° 0 mm 3 mps 694 mmHg 73%
    22:00 +24°C° 0 mm 3 mps 694 mmHg 74%
    23:00 +24°C° 0 mm 3 mps 694 mmHg 76%

    28 October, Saturday

    Time Temperature Precipitation Wind Pressure Humidity
    00:00 +24°C° 0 mm 3 mps 694 mmHg 77%
    01:00 +22°C° 0 mm 3 mps 694 mmHg 77%
    02:00 +22°C° 0 mm 3 mps 693 mmHg 76%
    03:00 +22°C° 0 mm 3 mps 693 mmHg 76%
    04:00 +22°C° 0 mm 3 mps 693 mmHg 76%
    05:00 +22°C° 0 mm 3 mps 694 mmHg 76%
    06:00 +22°C° 0 mm 3 mps 694 mmHg 76%
    07:00 +23°C° 0 mm 4 mps 695 mmHg 70%
    08:00 +26°C° 0 mm 4 mps 695 mmHg 64%
    09:00 +28°C° 0 mm 4 mps 696 mmHg 58%
    10:00 +29°C° 0.2 mm 4 mps 696 mmHg 56%
    11:00 +30°C° 0.2 mm 4 mps 695 mmHg 53%
    12:00 +32°C° 0.2 mm 4 mps 695 mmHg 51%
    13:00 +30°C° 0.7 mm 4 mps 695 mmHg 55%
    14:00 +29°C° 0.7 mm 3 mps 695 mmHg 58%
    15:00 +28°C° 0.7 mm 3 mps 694 mmHg 62%
    16:00 +27°C° 0.8 mm 2 mps 694 mmHg 67%
    17:00 +26°C° 0.8 mm 2 mps 695 mmHg 72%
    18:00 +25°C° 0.8 mm 1 mps 695 mmHg 77%
    19:00 +24°C° 0.3 mm 2 mps 695 mmHg 81%
    20:00 +23°C° 0.3 mm 2 mps 696 mmHg 84%
    21:00 +23°C° 0.3 mm 2 mps 696 mmHg 88%
    22:00 +21°C° 0.1 mm 2 mps 696 mmHg 88%
    23:00 +21°C° 0.1 mm 2 mps 695 mmHg 89%

    29 October, Sunday

    Time Temperature Precipitation Wind Pressure Humidity
    00:00 +21°C° 0.1 mm 2 mps 695 mmHg 90%
    01:00 +21°C° 0 mm 1 mps 695 mmHg 90%
    02:00 +21°C° 0 mm 1 mps 695 mmHg 89%
    03:00 +21°C° 0 mm 1 mps 695 mmHg 89%
    04:00 +20°C° 0.2 mm 2 mps 695 mmHg 89%
    05:00 +20°C° 0.2 mm 2 mps 695 mmHg 90%
    06:00 +20°C° 0.2 mm 2 mps 695 mmHg 90%
    07:00 +21°C° 0.4 mm 2 mps 696 mmHg 86%
    08:00 +23°C° 0.4 mm 2 mps 696 mmHg 81%
    09:00 +24°C° 0.4 mm 2 mps 696 mmHg 77%
    10:00 +25°C° 1.7 mm 2 mps 696 mmHg 75%
    11:00 +26°C° 1.7 mm 2 mps 696 mmHg 72%
    12:00 +27°C° 1.7 mm 2 mps 695 mmHg 70%
    13:00 +26°C° 2 mm 2 mps 695 mmHg 73%
    14:00 +25°C° 2 mm 1 mps 695 mmHg 77%
    15:00 +24°C° 2 mm 1 mps 694 mmHg 80%
    16:00 +24°C° 0.4 mm 1 mps 694 mmHg 81%
    17:00 +23°C° 0.4 mm 1 mps 694 mmHg 82%
    18:00 +23°C° 0.4 mm 1 mps 694 mmHg 83%
    19:00 +23°C° 0 mm 1 mps 694 mmHg 84%
    20:00 +22°C° 0 mm 1 mps 694 mmHg 85%
    21:00 +22°C° 0 mm 1 mps 694 mmHg 86%
    22:00 +22°C° 0 mm 1 mps 693 mmHg 85%
    23:00 +22°C° 0 mm 1 mps 693 mmHg 84%

    30 October, Monday

    Time Temperature Precipitation Wind Pressure Humidity
    00:00 +22°C° 0 mm 1 mps 693 mmHg 83%
    01:00 +22°C° 0.1 mm 1 mps 693 mmHg 83%
    02:00 +21°C° 0.1 mm 1 mps 692 mmHg 83%
    03:00 +21°C° 0.1 mm 1 mps 692 mmHg 83%
    04:00 +21°C° 0.9 mm 1 mps 692 mmHg 84%
    05:00 +21°C° 0.9 mm 1 mps 692 mmHg 86%
    06:00 +20°C° 0.9 mm 2 mps 692 mmHg 88%
    07:00 +21°C° 0.2 mm 3 mps 693 mmHg 85%
    08:00 +22°C° 0.2 mm 3 mps 693 mmHg 82%
    09:00 +23°C° 0.2 mm 4 mps 693 mmHg 79%
    10:00 +25°C° 0 mm 5 mps 693 mmHg 75%
    11:00 +26°C° 0 mm 5 mps 693 mmHg 71%
    12:00 +27°C° 0 mm 5 mps 693 mmHg 66%
    13:00 +28°C° 0.2 mm 5 mps 693 mmHg 64%
    14:00 +28°C° 0.2 mm 4 mps 693 mmHg 62%
    15:00 +29°C° 0.2 mm 4 mps 692 mmHg 60%
    16:00 +28°C° 0.5 mm 3 mps 693 mmHg 66%
    17:00 +26°C° 0.5 mm 3 mps 693 mmHg 71%
    18:00 +25°C° 0.5 mm 2 mps 693 mmHg 77%
    19:00 +24°C° 0.2 mm 2 mps 693 mmHg 80%
    20:00 +23°C° 0.2 mm 2 mps 694 mmHg 83%
    21:00 +22°C° 0.2 mm 3 mps 695 mmHg 87%
    22:00 +21°C° 0.1 mm 3 mps 695 mmHg 88%
    23:00 +20°C° 0.1 mm 4 mps 695 mmHg 89%
    Show more